Orbital Elements at Epoch 2459200.5 (2020-Dec-17.0) TDB
Reference: JPL 20 (heliocentric ecliptic J2000)
Element | Value | Uncertainty (1-sigma) | Units |
e | .1051301444689788 | 4.7221e-08 | |
a | 2.631714558921035 | 1.3463e-08 | au |
q | 2.355042027140552 | 1.2508e-07 | au |
i | 13.60843030247881 | 5.1231e-06 | deg |
node | 76.20802657565925 | 2.0949e-05 | deg |
peri | 96.12163003513092 | 3.262e-05 | deg |
M | 63.91812158508716 | 2.3444e-05 | deg |
tp | 2458923.628595243804 (2020-Mar-15.12859524) | 0.00010177 | TDB |
period | 1559.396666241917 4.27 | 1.1966e-05 3.276e-08 | d yr |
n | .2308585158563828 | 1.7715e-09 | deg/d |
Q | 2.908387090701519 | 1.4879e-08 | au |
|
| | Orbit Determination Parameters
Additional Information
|